Time,TemperatureF,DewpointF,PressureIn,WindDirection,WindDirectionDegrees,WindSpeedMPH,WindSpeedGustMPH,Humidity,HourlyPrecipIn,Conditions,Clouds,dailyrainin,SoftwareType,DateUTC
2013-02-27 00:02:00,30.0,28.0,29.83,NW,315,10.0,13.0,91,0.00,,,0.08,,2013-02-27 06:02:00,
2013-02-27 00:11:00,30.0,28.0,29.83,NW,315,10.0,13.0,91,0.00,,,0.08,,2013-02-27 06:11:00,
2013-02-27 00:21:00,29.0,27.0,29.84,NW,320,7.0,14.0,91,0.00,,,0.08,,2013-02-27 06:21:00,
2013-02-27 00:32:00,29.0,27.0,29.83,NW,313,4.0,12.0,91,0.00,,,0.08,,2013-02-27 06:32:00,
2013-02-27 00:41:00,29.0,27.0,29.83,NW,313,4.0,12.0,91,0.00,,,0.08,,2013-02-27 06:41:00,
2013-02-27 00:51:00,29.0,27.0,29.84,NW,305,10.0,15.0,91,0.00,,,0.08,,2013-02-27 06:51:00,
2013-02-27 01:01:00,29.0,27.0,29.83,NW,304,3.0,11.0,91,0.00,,,0.08,,2013-02-27 07:01:00,
2013-02-27 01:12:00,29.0,27.0,29.83,NW,304,3.0,11.0,91,0.00,,,0.08,,2013-02-27 07:12:00,
2013-02-27 01:21:00,29.0,27.0,29.85,NW,311,7.0,12.0,91,0.00,,,0.08,,2013-02-27 07:21:00,
2013-02-27 01:31:00,29.0,27.0,29.85,NW,311,7.0,12.0,91,0.00,,,0.08,,2013-02-27 07:31:00,
2013-02-27 01:41:00,29.0,27.0,29.85,NW,311,7.0,12.0,91,0.00,,,0.08,,2013-02-27 07:41:00,
2013-02-27 01:52:00,29.0,26.0,29.86,NW,308,7.0,13.0,90,0.00,,,0.08,,2013-02-27 07:52:00,
2013-02-27 02:01:00,29.0,26.0,29.84,NW,306,9.0,14.0,90,0.00,,,0.08,,2013-02-27 08:01:00,
2013-02-27 02:11:00,29.0,26.0,29.84,NW,306,9.0,14.0,90,0.00,,,0.08,,2013-02-27 08:11:00,
2013-02-27 02:21:00,29.0,27.0,29.83,NW,318,4.0,13.0,91,0.00,,,0.08,,2013-02-27 08:21:00,
2013-02-27 02:32:00,29.0,26.0,29.83,NW,320,9.0,13.0,90,0.00,,,0.08,,2013-02-27 08:32:00,
2013-02-27 02:41:00,29.0,26.0,29.83,NW,320,9.0,13.0,90,0.00,,,0.08,,2013-02-27 08:41:00,
2013-02-27 02:52:00,29.0,26.0,29.82,NNW,341,4.0,14.0,90,0.00,,,0.08,,2013-02-27 08:52:00,
2013-02-27 03:01:00,29.0,26.0,29.81,NW,323,5.0,9.0,90,0.00,,,0.08,,2013-02-27 09:01:00,
2013-02-27 03:11:00,29.0,26.0,29.81,NW,323,5.0,9.0,90,0.00,,,0.08,,2013-02-27 09:11:00,
2013-02-27 03:21:00,29.0,26.0,29.82,NW,322,8.0,11.0,90,0.00,,,0.08,,2013-02-27 09:21:00,
2013-02-27 03:32:00,29.0,26.0,29.82,NNW,335,5.0,12.0,90,0.00,,,0.08,,2013-02-27 09:32:00,
2013-02-27 03:41:00,29.0,26.0,29.82,NNW,335,5.0,12.0,90,0.00,,,0.08,,2013-02-27 09:41:00,
2013-02-27 03:52:00,29.0,26.0,29.82,NNW,344,3.0,9.0,90,0.00,,,0.08,,2013-02-27 09:52:00,
2013-02-27 04:01:00,29.0,26.0,29.82,NW,319,9.0,13.0,90,0.00,,,0.08,,2013-02-27 10:01:00,
2013-02-27 04:12:00,29.0,26.0,29.82,NW,319,9.0,13.0,90,0.00,,,0.08,,2013-02-27 10:12:00,
2013-02-27 04:21:00,29.0,26.0,29.83,NNW,327,4.0,12.0,90,0.00,,,0.08,,2013-02-27 10:21:00,
2013-02-27 04:32:00,29.0,26.0,29.81,NW,315,4.0,12.0,90,0.00,,,0.08,,2013-02-27 10:32:00,
2013-02-27 04:42:00,29.0,26.0,29.81,NW,315,4.0,12.0,90,0.00,,,0.08,,2013-02-27 10:42:00,
2013-02-27 04:52:00,29.0,26.0,29.81,WNW,289,4.0,11.0,90,0.00,,,0.08,,2013-02-27 10:52:00,
2013-02-27 05:02:00,29.0,26.0,29.83,NW,314,6.0,12.0,90,0.00,,,0.08,,2013-02-27 11:02:00,
2013-02-27 05:12:00,29.0,26.0,29.83,NW,314,6.0,12.0,90,0.00,,,0.08,,2013-02-27 11:12:00,
2013-02-27 05:22:00,29.0,26.0,29.83,WNW,303,9.0,10.0,90,0.00,,,0.08,,2013-02-27 11:22:00,
2013-02-27 05:32:00,29.0,26.0,29.85,NW,319,4.0,9.0,90,0.00,,,0.08,,2013-02-27 11:32:00,
2013-02-27 05:41:00,29.0,26.0,29.85,NW,319,4.0,9.0,90,0.00,,,0.08,,2013-02-27 11:41:00,
2013-02-27 05:52:00,29.0,26.0,29.86,WNW,302,4.0,11.0,89,0.00,,,0.08,,2013-02-27 11:52:00,
2013-02-27 06:02:00,29.0,26.0,29.87,NW,304,9.0,16.0,89,0.00,,,0.08,,2013-02-27 12:02:00,
2013-02-27 06:12:00,29.0,26.0,29.87,NW,304,9.0,16.0,89,0.00,,,0.08,,2013-02-27 12:12:00,
2013-02-27 06:22:00,29.0,26.0,29.86,WNW,301,6.0,15.0,89,0.00,,,0.08,,2013-02-27 12:22:00,
2013-02-27 06:32:00,28.0,25.0,29.85,North,356,4.0,9.0,89,0.00,,,0.08,,2013-02-27 12:32:00,
2013-02-27 06:42:00,28.0,25.0,29.85,North,356,4.0,9.0,89,0.00,,,0.08,,2013-02-27 12:42:00,
2013-02-27 06:52:00,28.0,25.0,29.87,ENE,65,4.0,11.0,89,0.00,,,0.08,,2013-02-27 12:52:00,
2013-02-27 07:02:00,28.0,25.0,29.87,NW,318,4.0,10.0,89,0.00,,,0.08,,2013-02-27 13:02:00,
2013-02-27 07:11:00,28.0,25.0,29.87,NW,318,4.0,10.0,89,0.00,,,0.08,,2013-02-27 13:11:00,
2013-02-27 07:22:00,27.0,24.0,29.88,NNE,16,5.0,8.0,89,0.00,,,0.08,,2013-02-27 13:22:00,
2013-02-27 07:32:00,27.0,24.0,29.88,NNW,338,8.0,11.0,89,0.00,,,0.08,,2013-02-27 13:32:00,
2013-02-27 07:42:00,27.0,24.0,29.88,NNW,338,8.0,11.0,89,0.00,,,0.08,,2013-02-27 13:42:00,
2013-02-27 07:52:00,27.0,24.0,29.89,NNW,347,3.0,12.0,89,0.00,,,0.08,,2013-02-27 13:52:00,
2013-02-27 08:02:00,27.0,24.0,29.88,NNW,332,9.0,13.0,89,0.00,,,0.08,,2013-02-27 14:02:00,
2013-02-27 08:12:00,27.0,24.0,29.88,NNW,332,9.0,13.0,89,0.00,,,0.08,,2013-02-27 14:12:00,
2013-02-27 08:21:00,27.0,24.0,29.88,NNW,332,9.0,19.0,89,0.00,,,0.08,,2013-02-27 14:21:00,
2013-02-27 08:32:00,27.0,24.0,29.89,NNE,33,2.0,12.0,89,0.00,,,0.08,,2013-02-27 14:32:00,
2013-02-27 08:42:00,27.0,24.0,29.89,NNE,33,2.0,12.0,89,0.00,,,0.08,,2013-02-27 14:42:00,
2013-02-27 08:52:00,28.0,25.0,29.91,SW,227,3.0,11.0,89,0.00,,,0.08,,2013-02-27 14:52:00,
2013-02-27 09:02:00,28.0,25.0,29.88,West,277,5.0,11.0,89,0.00,,,0.08,,2013-02-27 15:02:00,
2013-02-27 09:12:00,28.0,25.0,29.88,West,277,5.0,11.0,89,0.00,,,0.08,,2013-02-27 15:12:00,
2013-02-27 09:22:00,28.0,25.0,29.90,North,350,2.0,12.0,88,0.00,,,0.08,,2013-02-27 15:22:00,
2013-02-27 09:32:00,28.0,25.0,29.90,NNE,16,6.0,15.0,88,0.00,,,0.08,,2013-02-27 15:32:00,
2013-02-27 09:42:00,28.0,25.0,29.90,NNE,16,6.0,15.0,88,0.00,,,0.08,,2013-02-27 15:42:00,
2013-02-27 09:52:00,29.0,26.0,29.89,NNW,340,11.0,16.0,88,0.00,,,0.08,,2013-02-27 15:52:00,
2013-02-27 10:02:00,29.0,26.0,29.91,North,5,15.0,16.0,87,0.00,,,0.08,,2013-02-27 16:02:00,
2013-02-27 10:11:00,29.0,26.0,29.91,North,5,15.0,16.0,87,0.00,,,0.08,,2013-02-27 16:11:00,
2013-02-27 10:22:00,29.0,26.0,29.89,North,352,4.0,15.0,87,0.00,,,0.08,,2013-02-27 16:22:00,
2013-02-27 10:32:00,29.0,25.0,29.90,ENE,78,2.0,15.0,86,0.00,,,0.08,,2013-02-27 16:32:00,
2013-02-27 10:42:00,29.0,25.0,29.90,ENE,78,2.0,15.0,86,0.00,,,0.08,,2013-02-27 16:42:00,
2013-02-27 10:52:00,29.0,25.0,29.92,WNW,301,5.0,18.0,86,0.00,,,0.08,,2013-02-27 16:52:00,
2013-02-27 11:01:00,29.0,25.0,29.91,NNW,327,9.0,13.0,86,0.01,,,0.09,,2013-02-27 17:01:00,
2013-02-27 11:11:00,29.0,25.0,29.91,NNW,327,9.0,13.0,86,0.01,,,0.09,,2013-02-27 17:11:00,
2013-02-27 11:21:00,30.0,26.0,29.92,NNW,335,9.0,15.0,85,0.01,,,0.09,,2013-02-27 17:21:00,
2013-02-27 11:32:00,30.0,26.0,29.92,NW,320,16.0,21.0,84,0.01,,,0.09,,2013-02-27 17:32:00,
2013-02-27 11:42:00,30.0,26.0,29.92,NW,320,16.0,21.0,84,0.01,,,0.09,,2013-02-27 17:42:00,
2013-02-27 11:52:00,30.0,26.0,29.91,ENE,58,8.0,17.0,84,0.01,,,0.08,,2013-02-27 17:52:00,
2013-02-27 12:01:00,30.0,26.0,29.93,North,3,5.0,15.0,84,0.00,,,0.08,,2013-02-27 18:01:00,
2013-02-27 12:11:00,30.0,26.0,29.93,North,3,5.0,15.0,84,0.00,,,0.08,,2013-02-27 18:11:00,
2013-02-27 12:22:00,31.0,26.0,29.92,West,265,6.0,18.0,83,0.00,,,0.08,,2013-02-27 18:22:00,
2013-02-27 12:32:00,31.0,26.0,29.92,WNW,296,11.0,16.0,83,0.00,,,0.08,,2013-02-27 18:32:00,
2013-02-27 12:42:00,31.0,26.0,29.92,WNW,296,11.0,16.0,83,0.00,,,0.08,,2013-02-27 18:42:00,
2013-02-27 12:52:00,30.0,25.0,29.93,NW,322,2.0,19.0,82,0.01,,,0.09,,2013-02-27 18:52:00,
2013-02-27 13:01:00,31.0,26.0,29.92,West,274,3.0,18.0,82,0.02,,,0.07,,2013-02-27 19:01:00,
2013-02-27 13:11:00,31.0,26.0,29.92,West,274,3.0,18.0,82,0.02,,,0.07,,2013-02-27 19:11:00,
2013-02-27 13:21:00,31.0,26.0,29.91,ESE,118,4.0,19.0,81,0.03,,,0.08,,2013-02-27 19:21:00,
2013-02-27 13:32:00,31.0,26.0,29.93,SE,135,3.0,14.0,81,0.04,,,0.09,,2013-02-27 19:32:00,
2013-02-27 13:42:00,31.0,26.0,29.93,SE,135,3.0,14.0,81,0.04,,,0.09,,2013-02-27 19:42:00,
2013-02-27 13:52:00,31.0,26.0,29.92,NW,311,5.0,13.0,81,0.04,,,0.08,,2013-02-27 19:52:00,
2013-02-27 14:01:00,31.0,26.0,29.94,NW,320,11.0,15.0,81,0.03,,,0.08,,2013-02-27 20:01:00,
2013-02-27 14:11:00,31.0,26.0,29.94,NW,320,11.0,15.0,81,0.03,,,0.08,,2013-02-27 20:11:00,
2013-02-27 14:21:00,31.0,26.0,29.95,West,281,2.0,11.0,82,0.03,,,0.09,,2013-02-27 20:21:00,
2013-02-27 14:32:00,31.0,26.0,29.93,NNW,328,4.0,9.0,82,0.04,,,0.10,,2013-02-27 20:32:00,
2013-02-27 14:42:00,31.0,26.0,29.93,NNW,328,4.0,9.0,82,0.04,,,0.10,,2013-02-27 20:42:00,
2013-02-27 14:52:00,32.0,27.0,29.95,WNW,303,2.0,16.0,81,0.03,,,0.09,,2013-02-27 20:52:00,
2013-02-27 15:02:00,32.0,27.0,29.95,WNW,303,2.0,16.0,81,0.03,,,0.09,,2013-02-27 21:02:00,
2013-02-27 15:11:00,32.0,27.0,29.95,WNW,303,2.0,16.0,81,0.03,,,0.09,,2013-02-27 21:11:00,
2013-02-27 15:21:00,32.0,27.0,29.93,NW,316,5.0,16.0,81,0.03,,,0.10,,2013-02-27 21:21:00,
2013-02-27 15:31:00,32.0,27.0,29.94,NW,322,8.0,17.0,80,0.02,,,0.10,,2013-02-27 21:31:00,
2013-02-27 15:42:00,32.0,27.0,29.94,NW,322,8.0,17.0,80,0.02,,,0.10,,2013-02-27 21:42:00,
2013-02-27 15:52:00,32.0,26.0,29.93,NW,326,6.0,18.0,78,0.03,,,0.11,,2013-02-27 21:52:00,
2013-02-27 16:01:00,32.0,26.0,29.94,NNW,335,9.0,14.0,79,0.02,,,0.11,,2013-02-27 22:01:00,
2013-02-27 16:11:00,32.0,26.0,29.94,NNW,335,9.0,14.0,79,0.02,,,0.11,,2013-02-27 22:11:00,
2013-02-27 16:21:00,33.0,27.0,29.95,NW,320,9.0,18.0,79,0.01,,,0.11,,2013-02-27 22:21:00,
2013-02-27 16:31:00,33.0,28.0,29.95,NNW,339,8.0,13.0,80,0.02,,,0.12,,2013-02-27 22:31:00,
2013-02-27 16:41:00,33.0,28.0,29.95,NNW,339,8.0,13.0,80,0.02,,,0.12,,2013-02-27 22:41:00,
2013-02-27 16:52:00,33.0,27.0,29.94,NNW,336,3.0,21.0,79,0.01,,,0.12,,2013-02-27 22:52:00,
2013-02-27 17:01:00,33.0,27.0,29.95,North,352,2.0,18.0,78,0.01,,,0.12,,2013-02-27 23:01:00,
2013-02-27 17:11:00,33.0,27.0,29.95,North,352,2.0,18.0,78,0.01,,,0.12,,2013-02-27 23:11:00,
2013-02-27 17:21:00,33.0,27.0,29.96,NW,311,9.0,12.0,78,0.01,,,0.12,,2013-02-27 23:21:00,
2013-02-27 17:32:00,33.0,27.0,29.96,West,273,2.0,13.0,77,0.00,,,0.12,,2013-02-27 23:32:00,
2013-02-27 17:42:00,33.0,27.0,29.96,West,273,2.0,13.0,77,0.00,,,0.12,,2013-02-27 23:42:00,
2013-02-27 17:53:00,32.0,26.0,29.97,WNW,301,8.0,10.0,77,0.00,,,0.12,,2013-02-27 23:53:00,
2013-02-27 18:01:00,32.0,25.0,29.97,NW,322,1.0,14.0,76,0.00,,,0.12,,2013-02-28 00:01:00,
2013-02-27 18:11:00,32.0,25.0,29.97,NW,322,1.0,14.0,76,0.00,,,0.12,,2013-02-28 00:11:00,
2013-02-27 18:21:00,33.0,26.0,29.97,WNW,286,5.0,17.0,76,0.00,,,0.12,,2013-02-28 00:21:00,
2013-02-27 18:32:00,32.0,25.0,29.99,South,181,3.0,7.0,75,0.00,,,0.12,,2013-02-28 00:32:00,
2013-02-27 18:42:00,32.0,25.0,29.99,South,181,3.0,7.0,75,0.00,,,0.12,,2013-02-28 00:42:00,
2013-02-27 18:52:00,31.0,24.0,29.98,West,279,1.0,4.0,75,0.00,,,0.12,,2013-02-28 00:52:00,
2013-02-27 19:01:00,31.0,24.0,29.98,West,263,4.0,7.0,76,0.00,,,0.12,,2013-02-28 01:01:00,
2013-02-27 19:11:00,31.0,24.0,29.98,West,263,4.0,7.0,76,0.00,,,0.12,,2013-02-28 01:11:00,
2013-02-27 19:21:00,31.0,24.0,29.98,West,276,1.0,8.0,75,0.00,,,0.12,,2013-02-28 01:21:00,
2013-02-27 19:31:00,32.0,24.0,29.97,NNW,330,3.0,7.0,73,0.00,,,0.12,,2013-02-28 01:31:00,
2013-02-27 19:41:00,32.0,24.0,29.97,NNW,330,3.0,7.0,73,0.00,,,0.12,,2013-02-28 01:41:00,
2013-02-27 19:52:00,31.0,24.0,29.98,North,354,3.0,11.0,74,0.00,,,0.12,,2013-02-28 01:52:00,
2013-02-27 20:01:00,32.0,24.0,29.98,NW,320,5.0,11.0,73,0.00,,,0.12,,2013-02-28 02:01:00,
2013-02-27 20:11:00,32.0,24.0,29.98,NW,320,5.0,11.0,73,0.00,,,0.12,,2013-02-28 02:11:00,
2013-02-27 20:22:00,33.0,25.0,29.98,NNW,327,4.0,15.0,73,0.00,,,0.12,,2013-02-28 02:22:00,
2013-02-27 20:31:00,33.0,25.0,29.98,NW,325,15.0,16.0,72,0.00,,,0.12,,2013-02-28 02:31:00,
2013-02-27 20:41:00,33.0,25.0,29.98,NW,325,15.0,16.0,72,0.00,,,0.12,,2013-02-28 02:41:00,
2013-02-27 20:52:00,33.0,25.0,29.98,NW,325,15.0,16.0,72,0.00,,,0.12,,2013-02-28 02:52:00,
2013-02-27 21:01:00,33.0,24.0,30.00,NW,304,15.0,20.0,68,0.00,,,0.12,,2013-02-28 03:01:00,
2013-02-27 21:11:00,33.0,24.0,30.00,NW,304,15.0,20.0,68,0.00,,,0.12,,2013-02-28 03:11:00,
2013-02-27 21:21:00,33.0,23.0,29.99,NNW,332,11.0,17.0,67,0.00,,,0.12,,2013-02-28 03:21:00,
2013-02-27 21:31:00,33.0,23.0,29.99,NNW,335,8.0,21.0,67,0.00,,,0.12,,2013-02-28 03:31:00,
2013-02-27 21:41:00,33.0,23.0,29.99,NNW,335,8.0,21.0,67,0.00,,,0.12,,2013-02-28 03:41:00,
2013-02-27 21:52:00,33.0,23.0,30.00,NW,320,12.0,27.0,66,0.00,,,0.12,,2013-02-28 03:52:00,
2013-02-27 22:01:00,33.0,23.0,30.01,NNW,340,10.0,21.0,66,0.00,,,0.12,,2013-02-28 04:01:00,
2013-02-27 22:11:00,33.0,23.0,30.01,NNW,340,10.0,21.0,66,0.00,,,0.12,,2013-02-28 04:11:00,
2013-02-27 22:21:00,32.0,22.0,30.02,NW,313,11.0,17.0,67,0.00,,,0.12,,2013-02-28 04:21:00,
2013-02-27 22:32:00,32.0,22.0,30.01,NW,314,8.0,15.0,67,0.00,,,0.12,,2013-02-28 04:32:00,
2013-02-27 22:42:00,32.0,22.0,30.01,NW,314,8.0,15.0,67,0.00,,,0.12,,2013-02-28 04:42:00,
2013-02-27 22:52:00,32.0,22.0,30.02,NW,312,17.0,20.0,67,0.00,,,0.12,,2013-02-28 04:52:00,
2013-02-27 23:01:00,32.0,22.0,30.01,NNW,332,6.0,21.0,67,0.01,,,0.13,,2013-02-28 05:01:00,
2013-02-27 23:11:00,32.0,22.0,30.01,NNW,332,6.0,21.0,67,0.01,,,0.13,,2013-02-28 05:11:00,
2013-02-27 23:22:00,31.0,22.0,30.03,NW,321,8.0,17.0,68,0.01,,,0.13,,2013-02-28 05:22:00,
2013-02-27 23:31:00,31.0,22.0,30.02,NNW,335,5.0,17.0,70,0.01,,,0.13,,2013-02-28 05:31:00,
2013-02-27 23:42:00,31.0,22.0,30.02,NNW,335,5.0,17.0,70,0.01,,,0.13,,2013-02-28 05:42:00,
2013-02-27 23:52:00,31.0,23.0,30.03,NW,317,10.0,15.0,71,0.01,,,0.13,,2013-02-28 05:52:00,